| time (UTC) | temp F | wind direction | speed MPH | gust MPH | rain 1hr in | rain 24hr in | rain mn in | humidity % | barometer mb |
| 20260831121516 | 88 | 203 | 5.0 | 15.0 | 0.00 | 0.00 | 0.00 | 72 | 1013.6 |
| 20260831120516 | 88 | 225 | 7.0 | 15.0 | 0.00 | 0.00 | 0.00 | 70 | 1013.4 |
| 20260831115515 | 88 | 203 | 7.0 | 16.0 | 0.00 | 0.00 | 0.00 | 71 | 1013.5 |
| 20260831114516 | 89 | 203 | 7.0 | 17.0 | 0.00 | 0.00 | 0.00 | 70 | 1013.5 |
| 20260831113516 | 89 | 225 | 5.0 | 11.0 | 0.00 | 0.00 | 0.00 | 68 | 1013.4 |
| 20260831112515 | 89 | 203 | 6.0 | 14.0 | 0.00 | 0.00 | 0.00 | 68 | 1013.4 |
| 20260831111538 | 89 | 225 | 5.0 | 13.0 | 0.00 | 0.00 | 0.00 | 68 | 1013.3 |
| 20260831110517 | 90 | 248 | 5.0 | 10.0 | 0.00 | 0.00 | 0.00 | 67 | 1013.3 |
| 20260831105518 | 89 | 203 | 6.0 | 12.0 | 0.00 | 0.00 | 0.00 | 67 | 1013.4 |
| 20260831104515 | 89 | 225 | 6.0 | 15.0 | 0.00 | 0.00 | 0.00 | 68 | 1013.3 |
| 20260831103517 | 89 | 248 | 5.0 | 11.0 | 0.00 | 0.00 | 0.00 | 69 | 1013.3 |
| 20260831102517 | 90 | 203 | 7.0 | 18.0 | 0.00 | 0.00 | 0.00 | 68 | 1013.4 |
| 20260831101517 | 90 | 203 | 6.0 | 12.0 | 0.00 | 0.00 | 0.00 | 68 | 1013.3 |
| 20260831100517 | 90 | 203 | 7.0 | 12.0 | 0.00 | 0.00 | 0.00 | 66 | 1013.2 |
| 20260831095517 | 91 | 203 | 6.0 | 13.0 | 0.00 | 0.00 | 0.00 | 63 | 1013.3 |
| 20260831094517 | 90 | 203 | 5.0 | 15.0 | 0.00 | 0.00 | 0.00 | 64 | 1013.1 |
| 20260831093517 | 90 | 225 | 5.0 | 10.0 | 0.00 | 0.00 | 0.00 | 62 | 1013.0 |
| 20260831092517 | 90 | 225 | 3.0 | 10.0 | 0.00 | 0.00 | 0.00 | 64 | 1013.0 |
| 20260831091517 | 90 | 225 | 2.0 | 6.0 | 0.00 | 0.00 | 0.00 | 66 | 1013.1 |
| 20260831090517 | 89 | 203 | 3.0 | 7.0 | 0.00 | 0.00 | 0.00 | 65 | 1013.0 |
| 20260831085517 | 89 | 113 | 2.0 | 6.0 | 0.00 | 0.00 | 0.00 | 67 | 1013.0 |
| 20260831084517 | 90 | 203 | 2.0 | 4.0 | 0.00 | 0.00 | 0.00 | 65 | 1013.0 |
| 20260831083517 | 89 | 203 | 2.0 | 6.0 | 0.00 | 0.00 | 0.00 | 66 | 1013.0 |
| 20260831082517 | 88 | 203 | 1.0 | 3.0 | 0.00 | 0.00 | 0.00 | 69 | 1012.8 |
| 20260831081537 | 87 | 180 | 1.0 | 6.0 | 0.00 | 0.00 | 0.00 | 70 | 1012.8 |
| 20260831080517 | 87 | 90 | 2.0 | 5.0 | 0.00 | 0.00 | 0.00 | 71 | 1012.8 |
| 20260831075517 | 86 | 45 | 1.0 | 3.0 | 0.00 | 0.00 | 0.00 | 74 | 1012.7 |
| 20260831074517 | 86 | 113 | 3.0 | 6.0 | 0.00 | 0.00 | 0.00 | 74 | 1012.7 |
| 20260831073517 | 86 | 0.0 | 2.0 | 0.00 | 0.00 | 0.00 | 75 | 1012.6 | |
| 20260831072517 | 85 | 23 | 1.0 | 4.0 | 0.00 | 0.00 | 0.00 | 78 | 1012.6 |
| 20260831071517 | 83 | 113 | 2.0 | 5.0 | 0.00 | 0.00 | 0.00 | 79 | 1012.5 |
| 20260831070517 | 83 | 113 | 4.0 | 7.0 | 0.00 | 0.00 | 0.00 | 81 | 1012.7 |
| 20260831065517 | 82 | 90 | 3.0 | 7.0 | 0.00 | 0.00 | 0.00 | 82 | 1012.7 |
| 20260831064537 | 83 | 113 | 3.0 | 7.0 | 0.00 | 0.00 | 0.00 | 80 | 1012.7 |
| 20260831063517 | 83 | 113 | 1.0 | 5.0 | 0.00 | 0.00 | 0.00 | 82 | 1012.7 |
| 20260831062517 | 84 | 113 | 1.0 | 4.0 | 0.00 | 0.00 | 0.00 | 80 | 1012.8 |
| 20260831061518 | 84 | 0.0 | 2.0 | 0.00 | 0.00 | 0.00 | 81 | 1012.8 | |
| 20260831060517 | 84 | 0.0 | 0.0 | 0.00 | 0.00 | 0.00 | 81 | 1012.9 | |
| 20260831055517 | 83 | 0.0 | 0.0 | 0.00 | 0.00 | 0.00 | 83 | 1012.9 | |
| 20260831054517 | 81 | 0.0 | 0.0 | 0.00 | 0.00 | 0.00 | 86 | 1012.9 | |
| 20260831053517 | 80 | 0.0 | 0.0 | 0.00 | 0.00 | 0.00 | 88 | 1013.0 | |
| 20260831052517 | 79 | 0.0 | 0.0 | 0.00 | 0.00 | 0.00 | 89 | 1012.9 | |
| 20260831051517 | 78 | 0.0 | 0.0 | 0.00 | 0.00 | 0.00 | 89 | 1012.9 | |
| 20260831050517 | 78 | 0.0 | 0.0 | 0.00 | 0.00 | 0.00 | 90 | 1012.8 | |
| 20260831045517 | 78 | 0.0 | 0.0 | 0.00 | 0.00 | 0.00 | 90 | 1012.7 | |
| 20260831044517 | 78 | 0.0 | 0.0 | 0.00 | 0.00 | 0.00 | 91 | 1012.7 | |
| 20260831043517 | 78 | 0.0 | 0.0 | 0.00 | 0.00 | 0.00 | 91 | 1012.8 | |
| 20260831042537 | 78 | 0.0 | 0.0 | 0.00 | 0.00 | 0.00 | 91 | 1012.7 | |
| 20260831041517 | 78 | 0.0 | 0.0 | 0.00 | 0.00 | 0.00 | 92 | 1012.6 | |
| 20260831040517 | 78 | 0.0 | 0.0 | 0.00 | 0.00 | 0.00 | 92 | 1012.7 | |
| 20260831035516 | 78 | 0.0 | 0.0 | 0.00 | 0.00 | 0.00 | 93 | 1012.6 | |
| 20260831034516 | 78 | 0.0 | 0.0 | 0.00 | 0.00 | 0.00 | 94 | 1012.6 | |
| 20260831033536 | 78 | 0.0 | 0.0 | 0.00 | 0.00 | 0.00 | 94 | 1012.6 | |
| 20260831032516 | 78 | 0.0 | 0.0 | 0.00 | 0.00 | 0.00 | 94 | 1012.6 | |
| 20260831031516 | 78 | 0.0 | 0.0 | 0.00 | 0.00 | 0.00 | 94 | 1012.7 | |
| 20260831030516 | 78 | 0.0 | 0.0 | 0.00 | 0.00 | 0.00 | 94 | 1012.6 | |
| 20260831025516 | 78 | 0.0 | 0.0 | 0.00 | 0.00 | 0.00 | 94 | 1012.7 | |
| 20260831024516 | 78 | 0.0 | 0.0 | 0.00 | 0.00 | 0.00 | 94 | 1012.6 | |
| 20260831023516 | 78 | 0.0 | 0.0 | 0.00 | 0.00 | 0.00 | 94 | 1012.8 | |
| 20260831022516 | 79 | 0.0 | 2.0 | 0.00 | 0.00 | 0.00 | 94 | 1012.8 | |
| 20260831021516 | 79 | 0.0 | 0.0 | 0.00 | 0.00 | 0.00 | 94 | 1012.8 | |
| 20260831020517 | 79 | 0.0 | 0.0 | 0.00 | 0.00 | 0.00 | 94 | 1012.9 | |
| 20260831015536 | 79 | 0.0 | 0.0 | 0.00 | 0.00 | 0.00 | 94 | 1012.9 | |
| 20260831014516 | 80 | 0.0 | 1.0 | 0.00 | 0.00 | 0.00 | 94 | 1013.0 | |
| 20260831013516 | 80 | 0.0 | 1.0 | 0.00 | 0.00 | 0.00 | 94 | 1012.9 | |
| 20260831012516 | 80 | 203 | 2.0 | 5.0 | 0.00 | 0.00 | 0.00 | 94 | 1012.9 |
| 20260831011516 | 80 | 203 | 2.0 | 6.0 | 0.00 | 0.00 | 0.00 | 93 | 1013.0 |
| 20260831010516 | 80 | 0.0 | 2.0 | 0.00 | 0.00 | 0.00 | 93 | 1013.1 | |
| 20260831005516 | 80 | 0.0 | 2.0 | 0.00 | 0.00 | 0.00 | 93 | 1012.9 | |
| 20260831004516 | 80 | 203 | 1.0 | 4.0 | 0.00 | 0.00 | 0.00 | 93 | 1013.0 |
| 20260831003516 | 80 | 0.0 | 0.0 | 0.00 | 0.00 | 0.00 | 93 | 1012.9 | |
| 20260831002516 | 80 | 0.0 | 1.0 | 0.00 | 0.00 | 0.00 | 93 | 1012.9 | |
| 20260831001516 | 80 | 0.0 | 2.0 | 0.00 | 0.00 | 0.00 | 93 | 1012.9 | |
| 20260831000516 | 81 | 0.0 | 0.0 | 0.00 | 0.00 | 0.00 | 92 | 1012.9 | |
| 20260830235516 | 81 | 0.0 | 0.0 | 0.00 | 0.00 | 0.00 | 92 | 1012.9 | |
| 20260830234516 | 81 | 0.0 | 0.0 | 0.00 | 0.00 | 0.00 | 92 | 1012.9 | |
| 20260830233516 | 81 | 0.0 | 0.0 | 0.00 | 0.00 | 0.00 | 92 | 1012.8 | |
| 20260830232516 | 80 | 0.0 | 0.0 | 0.00 | 0.00 | 0.00 | 90 | 1012.8 | |
| 20260830231516 | 81 | 0.0 | 0.0 | 0.00 | 0.00 | 0.00 | 92 | 1012.8 | |
| 20260830230516 | 81 | 0.0 | 0.0 | 0.00 | 0.00 | 0.00 | 92 | 1012.7 | |
| 20260830225516 | 82 | 0.0 | 0.0 | 0.00 | 0.00 | 0.00 | 91 | 1012.9 | |
| 20260830224516 | 82 | 0.0 | 0.0 | 0.00 | 0.00 | 0.00 | 90 | 1013.0 | |
| 20260830223516 | 82 | 0.0 | 0.0 | 0.00 | 0.00 | 0.00 | 89 | 1012.8 | |
| 20260830222516 | 82 | 0.0 | 0.0 | 0.00 | 0.00 | 0.00 | 88 | 1012.8 | |
| 20260830221516 | 82 | 0.0 | 1.0 | 0.00 | 0.00 | 0.00 | 84 | 1012.7 | |
| 20260830220516 | 82 | 0.0 | 1.0 | 0.00 | 0.00 | 0.00 | 85 | 1012.6 | |
| 20260830215516 | 82 | 0.0 | 1.0 | 0.00 | 0.00 | 0.00 | 83 | 1012.7 | |
| 20260830214517 | 82 | 0.0 | 0.0 | 0.00 | 0.00 | 0.00 | 83 | 1012.6 | |
| 20260830213516 | 82 | 0.0 | 2.0 | 0.00 | 0.00 | 0.00 | 84 | 1012.7 | |
| 20260830212516 | 82 | 0.0 | 0.0 | 0.00 | 0.00 | 0.00 | 85 | 1012.6 | |
| 20260830211536 | 82 | 0.0 | 0.0 | 0.00 | 0.00 | 0.00 | 85 | 1012.6 | |
| 20260830210536 | 82 | 0.0 | 0.0 | 0.00 | 0.00 | 0.00 | 85 | 1012.6 | |
| 20260830205517 | 82 | 0.0 | 0.0 | 0.00 | 0.00 | 0.00 | 86 | 1012.5 | |
| 20260830204516 | 82 | 0.0 | 0.0 | 0.00 | 0.00 | 0.00 | 86 | 1012.4 | |
| 20260830203516 | 82 | 0.0 | 0.0 | 0.00 | 0.00 | 0.00 | 86 | 1012.3 | |
| 20260830202516 | 82 | 0.0 | 0.0 | 0.00 | 0.00 | 0.00 | 86 | 1012.3 | |
| 20260830201516 | 82 | 0.0 | 0.0 | 0.00 | 0.00 | 0.00 | 88 | 1012.3 | |
| 20260830200516 | 82 | 0.0 | 0.0 | 0.00 | 0.00 | 0.00 | 91 | 1012.2 | |
| 20260830195516 | 83 | 0.0 | 0.0 | 0.00 | 0.00 | 0.00 | 92 | 1012.2 | |
| 20260830194516 | 83 | 0.0 | 0.0 | 0.00 | 0.00 | 0.00 | 92 | 1012.1 | |
| 20260830193516 | 83 | 0.0 | 0.0 | 0.00 | 0.00 | 0.00 | 92 | 1012.0 | |
| 20260830192517 | 83 | 225 | 1.0 | 4.0 | 0.00 | 0.00 | 0.00 | 91 | 1011.9 |
| 20260830191516 | 83 | 0.0 | 2.0 | 0.00 | 0.00 | 0.00 | 91 | 1011.8 | |
| 20260830190516 | 83 | 203 | 2.0 | 4.0 | 0.00 | 0.00 | 0.00 | 91 | 1011.8 |
| 20260830185516 | 83 | 203 | 1.0 | 3.0 | 0.00 | 0.00 | 0.00 | 90 | 1011.6 |
| 20260830184556 | 83 | 203 | 1.0 | 3.0 | 0.00 | 0.00 | 0.00 | 90 | 1011.6 |
| 20260830183556 | 84 | 248 | 1.0 | 4.0 | 0.00 | 0.00 | 0.00 | 89 | 1011.5 |
| 20260830182516 | 84 | 225 | 1.0 | 4.0 | 0.00 | 0.00 | 0.00 | 88 | 1011.3 |
| 20260830181516 | 84 | 248 | 1.0 | 5.0 | 0.00 | 0.00 | 0.00 | 87 | 1011.1 |
| 20260830180516 | 84 | 203 | 1.0 | 5.0 | 0.00 | 0.00 | 0.00 | 84 | 1011.1 |
| 20260830175516 | 84 | 248 | 1.0 | 4.0 | 0.00 | 0.00 | 0.00 | 82 | 1011.0 |
| 20260830174516 | 84 | 203 | 1.0 | 6.0 | 0.00 | 0.00 | 0.00 | 82 | 1010.9 |
| 20260830173516 | 85 | 225 | 3.0 | 8.0 | 0.00 | 0.00 | 0.00 | 82 | 1010.8 |
| 20260830172516 | 85 | 270 | 2.0 | 7.0 | 0.00 | 0.00 | 0.00 | 82 | 1010.7 |
| 20260830171516 | 85 | 270 | 2.0 | 6.0 | 0.00 | 0.00 | 0.00 | 80 | 1010.8 |
| 20260830170516 | 86 | 270 | 3.0 | 7.0 | 0.00 | 0.00 | 0.00 | 79 | 1010.7 |
| 20260830165516 | 87 | 248 | 3.0 | 7.0 | 0.00 | 0.00 | 0.00 | 77 | 1010.7 |
| 20260830164536 | 87 | 270 | 4.0 | 9.0 | 0.00 | 0.00 | 0.00 | 75 | 1010.7 |
| 20260830163516 | 88 | 225 | 3.0 | 8.0 | 0.00 | 0.00 | 0.00 | 74 | 1010.7 |
| 20260830162516 | 87 | 225 | 4.0 | 9.0 | 0.00 | 0.00 | 0.00 | 73 | 1010.8 |
| 20260830161516 | 88 | 225 | 3.0 | 10.0 | 0.00 | 0.00 | 0.00 | 72 | 1010.7 |
| 20260830160516 | 88 | 225 | 3.0 | 8.0 | 0.00 | 0.00 | 0.00 | 71 | 1010.6 |
| 20260830155516 | 90 | 225 | 5.0 | 11.0 | 0.00 | 0.00 | 0.00 | 68 | 1010.7 |
| 20260830154516 | 91 | 225 | 4.0 | 8.0 | 0.00 | 0.00 | 0.00 | 65 | 1010.6 |
| 20260830153516 | 91 | 203 | 3.0 | 9.0 | 0.00 | 0.00 | 0.00 | 65 | 1010.5 |
| 20260830152536 | 91 | 225 | 5.0 | 11.0 | 0.00 | 0.00 | 0.00 | 66 | 1010.6 |
| 20260830151516 | 91 | 203 | 4.0 | 11.0 | 0.00 | 0.00 | 0.00 | 65 | 1010.7 |
| 20260830150516 | 91 | 225 | 2.0 | 9.0 | 0.00 | 0.00 | 0.00 | 63 | 1010.7 |
| 20260830145515 | 92 | 225 | 3.0 | 8.0 | 0.00 | 0.00 | 0.00 | 62 | 1010.8 |
| 20260830144516 | 91 | 225 | 3.0 | 8.0 | 0.00 | 0.00 | 0.00 | 63 | 1010.8 |
| 20260830143515 | 91 | 203 | 3.0 | 10.0 | 0.00 | 0.00 | 0.00 | 63 | 1010.8 |
| 20260830142516 | 91 | 203 | 6.0 | 11.0 | 0.00 | 0.00 | 0.00 | 63 | 1011.0 |
| 20260830141515 | 92 | 225 | 5.0 | 9.0 | 0.00 | 0.00 | 0.00 | 63 | 1011.0 |
| 20260830140515 | 92 | 203 | 7.0 | 12.0 | 0.00 | 0.00 | 0.00 | 64 | 1011.0 |
| 20260830135516 | 92 | 203 | 6.0 | 15.0 | 0.00 | 0.00 | 0.00 | 64 | 1011.0 |
| 20260830135016 | 91 | 203 | 5.0 | 10.0 | 0.00 | 0.00 | 0.00 | 64 | 1011.0 |
| 20260830134016 | 92 | 225 | 6.0 | 13.0 | 0.00 | 0.00 | 0.00 | 62 | 1011.1 |
| 20260830133036 | 92 | 203 | 5.0 | 11.0 | 0.00 | 0.00 | 0.00 | 62 | 1011.1 |
| 20260830132516 | 92 | 203 | 4.0 | 11.0 | 0.00 | 0.00 | 0.00 | 63 | 1011.1 |
| 20260830131515 | 91 | 225 | 3.0 | 8.0 | 0.00 | 0.00 | 0.00 | 64 | 1011.1 |
| 20260830130632 | 92 | 203 | 6.0 | 16.0 | 0.00 | 0.00 | 0.00 | 65 | 1011.3 |
| 20260830130036 | 92 | 225 | 5.0 | 10.0 | 0.00 | 0.00 | 0.00 | 65 | 1011.4 |
| 20260830125653 | 92 | 225 | 7.0 | 15.0 | 0.00 | 0.00 | 0.00 | 65 | 1011.5 |
| 20260830125015 | 92 | 203 | 7.0 | 15.0 | 0.00 | 0.00 | 0.00 | 63 | 1011.4 |
| 20260830124035 | 93 | 203 | 5.0 | 12.0 | 0.00 | 0.00 | 0.00 | 62 | 1011.5 |
| 20260830123015 | 93 | 225 | 6.0 | 15.0 | 0.00 | 0.00 | 0.00 | 60 | 1011.6 |
| 20260830122032 | 93 | 270 | 7.0 | 15.0 | 0.00 | 0.00 | 0.00 | 60 | 1011.6 |